Location: Aldenham
(51.6667°N, 0.3500°W)
Time: 17:04:57
(UTC+00:00)

Cosmos 1269 Rocket - Pass Details

Date: 18 November 2025
Orbit: 768 x 775 km, 74.1° (Epoch: 13 December)

Event Time Altitude Azimuth Distance (km) Brightness Sun altitude
Rises 17:11:46 0° 206° (SSW) 3,229 8.0 -9.9°
Reaches altitude 10° 17:14:08 10° 207° (SSW) 2,308 7.2 -10.2°
Maximum altitude 17:19:23 82° 295° (WNW) 785 4.1 -11.0°
Drops below altitude 10° 17:24:41 10° 24° (NNE) 2,329 6.1 -11.8°
Enters shadow 17:26:11 - 25° (NNE) 2,913 6.6 -12.0°
